HAZ6167 RCTP-ZPPP

Flight info

Callsign HAZ6167
Flight time 2h 33m
Altitude 40100
Route CHALI1C CHALI T3 MKG A1 ANPOG R200 OLDID/N0491F401 R200 LAPUG/K0907S1220 R200 LH R339 BSE A599 LXI LXI1A
Aircraft A359/H-SDE2E3GHIJ3J4J5LM1ORWXY/LB1D1

Departure

Time 2026-05-04 10:36
Airport Taiwan Taoyuan International Airport (RCTP)

Arrival

Time 2026-05-04 13:09
Airport Kunming Changshui International Airport (ZPPP)
Time Latitude Longitude Altitude Speed Heading
2026-05-04 10:36 25.11831 121.27379 3189 ft 171 kts 49°
2026-05-04 10:36 25.12635 121.28400 3603 ft 186 kts 49°
2026-05-04 10:36 25.13741 121.29286 3804 ft 212 kts 19°
2026-05-04 10:37 25.15281 121.29258 3982 ft 237 kts 338°
2026-05-04 10:37 25.16636 121.28143 4358 ft 254 kts 310°
2026-05-04 10:37 25.17797 121.26622 5022 ft 262 kts 309°
2026-05-04 10:37 25.19028 121.25119 5790 ft 266 kts 309°
2026-05-04 10:39 25.26528 121.15905 10979 ft 268 kts 297°
2026-05-04 10:39 25.27267 121.14041 11767 ft 264 kts 281°
2026-05-04 10:39 25.27423 121.12039 12546 ft 263 kts 262°
2026-05-04 10:40 25.26748 121.10176 13359 ft 266 kts 240°
2026-05-04 10:40 25.25654 121.08511 14141 ft 269 kts 235°
2026-05-04 10:40 25.24462 121.06899 14831 ft 274 kts 234°
2026-05-04 10:40 25.23197 121.05241 15192 ft 290 kts 233°
2026-05-04 10:41 25.21845 121.03500 15520 ft 306 kts 232°
2026-05-04 10:41 25.20386 121.01702 15835 ft 322 kts 229°
2026-05-04 10:41 25.18771 120.99923 16133 ft 336 kts 227°
2026-05-04 10:41 25.17052 120.98094 16423 ft 349 kts 227°
2026-05-04 10:42 25.15278 120.96216 16836 ft 356 kts 227°
2026-05-04 10:42 25.13487 120.94314 17352 ft 360 kts 227°
2026-05-04 10:42 25.11680 120.92377 17867 ft 363 kts 227°
2026-05-04 10:42 25.09868 120.90427 18391 ft 366 kts 227°
2026-05-04 10:43 25.08032 120.88450 18861 ft 369 kts 227°
2026-05-04 10:44 24.94846 120.74258 22137 ft 389 kts 227°
2026-05-04 10:45 24.92902 120.72169 22614 ft 392 kts 227°
2026-05-04 10:45 24.90945 120.70067 23087 ft 394 kts 227°
2026-05-04 10:45 24.88975 120.67952 23537 ft 397 kts 227°
2026-05-04 10:45 24.86987 120.65818 23921 ft 401 kts 227°
2026-05-04 10:46 24.84983 120.63669 24293 ft 404 kts 227°
2026-05-04 10:46 24.82964 120.61505 24682 ft 407 kts 227°
2026-05-04 10:46 24.80926 120.59321 25079 ft 411 kts 227°
2026-05-04 10:46 24.78870 120.57119 25504 ft 414 kts 227°
2026-05-04 10:47 24.76797 120.54900 25943 ft 417 kts 227°
2026-05-04 10:47 24.74712 120.52671 26371 ft 421 kts 226°
2026-05-04 10:47 24.72522 120.50507 26789 ft 425 kts 224°
2026-05-04 10:47 24.70476 120.48173 27211 ft 425 kts 233°
2026-05-04 10:49 24.59065 120.28032 28048 ft 468 kts 240°
2026-05-04 10:50 24.55677 120.21924 28044 ft 468 kts 240°
2026-05-04 10:52 24.42630 119.98568 28052 ft 469 kts 240°
2026-05-04 10:52 24.38662 119.91481 28053 ft 469 kts 240°
2026-05-04 10:54 24.25548 119.68134 28055 ft 469 kts 239°
2026-05-04 10:56 24.11813 119.43800 28059 ft 470 kts 239°
2026-05-04 10:57 24.08370 119.37719 28059 ft 470 kts 239°
2026-05-04 10:57 24.04923 119.31638 28060 ft 470 kts 239°
2026-05-04 10:58 24.01471 119.25555 28060 ft 471 kts 239°
2026-05-04 10:58 23.98014 119.19472 28063 ft 471 kts 239°
2026-05-04 10:59 23.94554 119.13391 28058 ft 471 kts 239°
2026-05-04 10:59 23.91089 119.07310 28059 ft 471 kts 239°
2026-05-04 11:00 23.87620 119.01229 28059 ft 472 kts 239°
2026-05-04 11:02 23.73720 118.76933 28063 ft 472 kts 239°
2026-05-04 11:05 23.47472 118.31377 28063 ft 474 kts 239°
2026-05-04 11:06 23.43948 118.25292 28068 ft 474 kts 239°
2026-05-04 11:06 23.40428 118.19221 28071 ft 474 kts 239°
2026-05-04 11:10 23.15710 117.76793 28068 ft 474 kts 239°
2026-05-04 11:12 23.01745 117.52557 28064 ft 473 kts 246°
2026-05-04 11:12 22.99838 117.45766 28062 ft 472 kts 260°
2026-05-04 11:13 22.99241 117.38674 28062 ft 472 kts 266°
2026-05-04 11:13 22.99066 117.31542 28062 ft 473 kts 268°
2026-05-04 11:14 22.99041 117.30340 28062 ft 473 kts 268°
2026-05-04 11:16 22.97713 116.96054 30442 ft 456 kts 266°
2026-05-04 11:16 22.97564 116.92624 30854 ft 456 kts 266°
2026-05-04 11:16 22.97413 116.89174 31211 ft 458 kts 266°
2026-05-04 11:17 22.97262 116.85720 31547 ft 460 kts 266°
2026-05-04 11:17 22.97108 116.82245 31854 ft 462 kts 266°
2026-05-04 11:19 22.96013 116.57841 34594 ft 457 kts 266°
2026-05-04 11:19 22.95855 116.54403 34991 ft 455 kts 266°
2026-05-04 11:19 22.95698 116.50985 35379 ft 453 kts 266°
2026-05-04 11:19 22.95541 116.47585 35780 ft 450 kts 266°
2026-05-04 11:20 22.95384 116.44197 36164 ft 448 kts 266°
2026-05-04 11:20 22.95226 116.40826 36517 ft 447 kts 266°
2026-05-04 11:20 22.95071 116.37505 36859 ft 446 kts 266°
2026-05-04 11:20 22.94864 116.34158 37196 ft 444 kts 265°
2026-05-04 11:22 22.92447 116.11048 39192 ft 438 kts 264°
2026-05-04 11:22 22.92101 116.07767 39388 ft 438 kts 264°
2026-05-04 11:23 22.91759 116.04478 39587 ft 438 kts 264°
2026-05-04 11:23 22.91419 116.01200 39783 ft 438 kts 264°
2026-05-04 11:24 22.89373 115.81400 40163 ft 448 kts 264°
2026-05-04 11:25 22.89037 115.78029 40164 ft 450 kts 264°
2026-05-04 11:25 22.88361 115.71265 40160 ft 452 kts 264°
2026-05-04 11:27 22.85257 115.40753 40154 ft 453 kts 264°
2026-05-04 11:28 22.84558 115.33963 40154 ft 453 kts 264°
2026-05-04 11:28 22.83857 115.27180 40156 ft 453 kts 264°
2026-05-04 11:29 22.83153 115.20395 40153 ft 453 kts 264°
2026-05-04 11:29 22.82449 115.13654 40153 ft 453 kts 264°
2026-05-04 11:33 22.77458 114.66182 40141 ft 453 kts 264°
2026-05-04 11:33 22.76771 114.59400 40137 ft 453 kts 264°
2026-05-04 11:34 22.76077 114.52605 40138 ft 453 kts 264°
2026-05-04 11:34 22.75384 114.45821 40137 ft 454 kts 264°
2026-05-04 11:35 22.74689 114.39023 40137 ft 454 kts 264°
2026-05-04 11:35 22.73991 114.32231 40138 ft 454 kts 264°
2026-05-04 11:36 22.73288 114.25428 40133 ft 454 kts 264°
2026-05-04 11:36 22.72582 114.18623 40133 ft 455 kts 264°
2026-05-04 11:37 22.71871 114.11817 40128 ft 455 kts 264°
2026-05-04 11:37 22.71408 114.04998 40125 ft 454 kts 273°
2026-05-04 11:38 22.72275 113.98226 40124 ft 455 kts 279°
2026-05-04 11:38 22.73541 113.91512 40122 ft 455 kts 281°
2026-05-04 11:39 22.74854 113.84814 40121 ft 455 kts 281°
2026-05-04 11:41 22.79251 113.61336 40121 ft 454 kts 280°
2026-05-04 11:41 22.80279 113.55767 40121 ft 454 kts 280°
2026-05-04 11:42 22.81518 113.49061 40122 ft 453 kts 280°
2026-05-04 11:42 22.82754 113.42359 40121 ft 453 kts 280°
2026-05-04 11:43 22.83984 113.35658 40119 ft 453 kts 280°
2026-05-04 11:43 22.85209 113.28961 40119 ft 453 kts 280°
2026-05-04 11:44 22.86432 113.22256 40119 ft 453 kts 280°
2026-05-04 11:44 22.87653 113.15552 40121 ft 453 kts 280°
2026-05-04 11:45 22.88869 113.08850 40120 ft 453 kts 280°
2026-05-04 11:45 22.90076 113.02189 40122 ft 453 kts 280°
2026-05-04 11:46 22.91288 112.95482 40124 ft 453 kts 280°
2026-05-04 11:46 22.92497 112.88773 40123 ft 453 kts 280°
2026-05-04 11:47 22.93703 112.82061 40125 ft 453 kts 280°
2026-05-04 11:47 22.94907 112.75348 40127 ft 453 kts 280°
2026-05-04 11:48 22.96111 112.68628 40127 ft 453 kts 280°
2026-05-04 11:48 22.97313 112.61916 40132 ft 453 kts 280°
2026-05-04 11:49 22.98510 112.55203 40134 ft 453 kts 280°
2026-05-04 11:49 22.99700 112.48498 40135 ft 453 kts 280°
2026-05-04 11:50 23.00889 112.41779 40134 ft 453 kts 280°
2026-05-04 11:50 23.02082 112.35055 40136 ft 454 kts 280°
2026-05-04 11:51 23.03280 112.28325 40139 ft 454 kts 280°
2026-05-04 11:51 23.04466 112.21605 40138 ft 454 kts 280°
2026-05-04 11:52 23.05649 112.14866 40140 ft 454 kts 280°
2026-05-04 11:52 23.06826 112.08131 40141 ft 454 kts 280°
2026-05-04 11:53 23.07992 112.01440 40141 ft 454 kts 280°
2026-05-04 11:53 23.09164 111.94704 40142 ft 454 kts 280°
2026-05-04 11:55 23.13810 111.67799 40140 ft 453 kts 280°
2026-05-04 11:56 23.14964 111.61073 40142 ft 452 kts 280°
2026-05-04 11:56 23.16114 111.54358 40141 ft 452 kts 280°
2026-05-04 11:57 23.17259 111.47655 40144 ft 452 kts 280°
2026-05-04 11:57 23.18402 111.40939 40141 ft 451 kts 280°
2026-05-04 11:58 23.19541 111.34231 40147 ft 451 kts 280°
2026-05-04 11:58 23.20678 111.27522 40145 ft 451 kts 280°
2026-05-04 11:59 23.21810 111.20820 40143 ft 451 kts 280°
2026-05-04 11:59 23.22938 111.14123 40143 ft 451 kts 280°
2026-05-04 12:00 23.24066 111.07404 40141 ft 451 kts 280°
2026-05-04 12:00 23.25182 111.00742 40143 ft 451 kts 280°
2026-05-04 12:01 23.26301 110.94046 40144 ft 451 kts 280°
2026-05-04 12:02 23.30200 110.70570 40139 ft 450 kts 280°
2026-05-04 12:03 23.31308 110.63857 40136 ft 450 kts 280°
2026-05-04 12:03 23.32412 110.57152 40133 ft 451 kts 280°
2026-05-04 12:04 23.33514 110.50436 40132 ft 451 kts 280°
2026-05-04 12:04 23.34612 110.43725 40133 ft 451 kts 280°
2026-05-04 12:05 23.35708 110.37011 40129 ft 451 kts 280°
2026-05-04 12:05 23.36803 110.30291 40126 ft 451 kts 280°
2026-05-04 12:06 23.37893 110.23571 40130 ft 451 kts 280°
2026-05-04 12:06 23.38980 110.16858 40131 ft 451 kts 280°
2026-05-04 12:07 23.40065 110.10137 40129 ft 451 kts 280°
2026-05-04 12:07 23.41147 110.03408 40131 ft 451 kts 280°
2026-05-04 12:08 23.42221 109.96723 40125 ft 452 kts 280°
2026-05-04 12:08 23.43307 109.89951 40125 ft 451 kts 279°
2026-05-04 12:09 23.44380 109.83224 40119 ft 451 kts 279°
2026-05-04 12:09 23.45450 109.76496 40119 ft 451 kts 279°
2026-05-04 12:10 23.46518 109.69760 40121 ft 451 kts 279°
2026-05-04 12:10 23.47583 109.63028 40118 ft 451 kts 279°
2026-05-04 12:11 23.48645 109.56300 40114 ft 451 kts 279°
2026-05-04 12:11 23.49703 109.49572 40114 ft 451 kts 279°
2026-05-04 12:12 23.50762 109.42821 40113 ft 451 kts 279°
2026-05-04 12:12 23.51816 109.36083 40111 ft 451 kts 279°
2026-05-04 12:14 23.56003 109.09119 40107 ft 451 kts 279°
2026-05-04 12:15 23.57044 109.02375 40109 ft 451 kts 279°
2026-05-04 12:15 23.58074 108.95673 40106 ft 451 kts 279°
2026-05-04 12:16 23.59107 108.88925 40108 ft 451 kts 279°
2026-05-04 12:16 23.60137 108.82179 40107 ft 451 kts 279°
2026-05-04 12:17 23.61166 108.75426 40109 ft 451 kts 279°
2026-05-04 12:17 23.62191 108.68675 40111 ft 451 kts 279°
2026-05-04 12:18 23.63213 108.61922 40112 ft 451 kts 279°
2026-05-04 12:18 23.64232 108.55168 40118 ft 451 kts 279°
2026-05-04 12:19 23.65249 108.48419 40121 ft 451 kts 279°
2026-05-04 12:19 23.66261 108.41669 40115 ft 451 kts 279°
2026-05-04 12:20 23.67271 108.34919 40115 ft 451 kts 279°
2026-05-04 12:20 23.68279 108.28157 40117 ft 451 kts 279°
2026-05-04 12:21 23.69283 108.21400 40116 ft 451 kts 279°
2026-05-04 12:21 23.70286 108.14639 40112 ft 452 kts 279°
2026-05-04 12:22 23.71284 108.07882 40112 ft 452 kts 279°
2026-05-04 12:22 23.72281 108.01111 40113 ft 452 kts 279°
2026-05-04 12:23 23.73275 107.94343 40110 ft 452 kts 279°
2026-05-04 12:23 23.74267 107.87565 40115 ft 452 kts 279°
2026-05-04 12:24 23.75256 107.80787 40114 ft 452 kts 279°
2026-05-04 12:24 23.76242 107.74009 40114 ft 453 kts 279°
2026-05-04 12:25 23.77228 107.67219 40116 ft 453 kts 279°
2026-05-04 12:25 23.78210 107.60426 40119 ft 453 kts 279°
2026-05-04 12:26 23.79187 107.53633 40119 ft 453 kts 279°
2026-05-04 12:26 23.79999 107.47979 40118 ft 453 kts 279°
2026-05-04 12:27 23.81132 107.40068 40119 ft 454 kts 279°
2026-05-04 12:27 23.82103 107.33264 40118 ft 454 kts 279°
2026-05-04 12:28 23.82917 107.27548 40119 ft 455 kts 279°
2026-05-04 12:28 23.83878 107.20773 40118 ft 455 kts 279°
2026-05-04 12:29 23.85005 107.12795 40119 ft 454 kts 279°
2026-05-04 12:29 23.85966 107.05980 40123 ft 454 kts 279°
2026-05-04 12:30 23.86761 107.00319 40120 ft 453 kts 279°
2026-05-04 12:30 23.87713 106.93521 40118 ft 453 kts 279°
2026-05-04 12:31 23.88662 106.86718 40121 ft 452 kts 279°
2026-05-04 12:31 23.89607 106.79925 40122 ft 453 kts 279°
2026-05-04 12:32 23.91024 106.69703 40124 ft 454 kts 279°
2026-05-04 12:33 23.91975 106.62881 40119 ft 454 kts 281°
2026-05-04 12:33 23.94013 106.56379 40125 ft 454 kts 294°
2026-05-04 12:34 23.96703 106.50115 40127 ft 455 kts 294°
2026-05-04 12:34 23.99420 106.43864 40129 ft 456 kts 294°
2026-05-04 12:35 24.02139 106.37606 40127 ft 456 kts 294°
2026-05-04 12:35 24.04860 106.31334 40126 ft 456 kts 294°
2026-05-04 12:36 24.07576 106.25062 40130 ft 457 kts 294°
2026-05-04 12:36 24.10293 106.18783 40133 ft 456 kts 294°
2026-05-04 12:37 24.13009 106.12503 40135 ft 456 kts 294°
2026-05-04 12:37 24.15718 106.06226 40135 ft 456 kts 294°
2026-05-04 12:38 24.18428 105.99942 40137 ft 456 kts 294°
2026-05-04 12:38 24.21130 105.93664 40143 ft 455 kts 294°
2026-05-04 12:39 24.23831 105.87387 40147 ft 455 kts 294°
2026-05-04 12:39 24.26534 105.81125 40148 ft 454 kts 295°
2026-05-04 12:40 24.29226 105.74872 40149 ft 454 kts 294°
2026-05-04 12:40 24.31910 105.68611 40150 ft 453 kts 294°
2026-05-04 12:41 24.34587 105.62353 40153 ft 453 kts 294°
2026-05-04 12:41 24.37260 105.56095 40158 ft 453 kts 294°
2026-05-04 12:42 24.39926 105.49843 40157 ft 453 kts 294°
2026-05-04 12:42 24.42578 105.43616 40159 ft 453 kts 294°
2026-05-04 12:43 24.45244 105.37346 40160 ft 453 kts 294°
2026-05-04 12:43 24.47909 105.31072 40155 ft 453 kts 294°
2026-05-04 12:44 24.50567 105.24804 40153 ft 453 kts 294°
2026-05-04 12:44 24.53224 105.18528 40148 ft 454 kts 294°
2026-05-04 12:45 24.55883 105.12237 40144 ft 454 kts 294°
2026-05-04 12:45 24.58535 105.05957 40144 ft 453 kts 294°
2026-05-04 12:46 24.61183 104.99678 40146 ft 454 kts 294°
2026-05-04 12:46 24.63838 104.93374 40151 ft 454 kts 294°
2026-05-04 12:47 24.66487 104.87072 40156 ft 455 kts 294°
2026-05-04 12:47 24.69140 104.80755 40161 ft 454 kts 294°
2026-05-04 12:48 24.71784 104.74450 40172 ft 454 kts 294°
2026-05-04 12:48 24.74428 104.68134 40181 ft 455 kts 294°
2026-05-04 12:49 24.77070 104.61813 40188 ft 455 kts 294°
2026-05-04 12:49 24.79714 104.55482 40189 ft 454 kts 294°
2026-05-04 12:49 24.81016 104.52361 39926 ft 446 kts 294°
2026-05-04 12:50 24.82301 104.49281 39496 ft 441 kts 294°
2026-05-04 12:50 24.83578 104.46212 38988 ft 439 kts 294°
2026-05-04 12:50 24.84849 104.43158 38378 ft 439 kts 294°
2026-05-04 12:50 24.86117 104.40107 37722 ft 438 kts 294°
2026-05-04 12:51 24.87387 104.37053 37055 ft 438 kts 294°
2026-05-04 12:51 24.88654 104.34002 36375 ft 439 kts 293°
2026-05-04 12:51 24.89924 104.30942 35687 ft 439 kts 293°
2026-05-04 12:51 24.91193 104.27883 35008 ft 440 kts 293°
2026-05-04 12:52 24.92466 104.24813 34312 ft 441 kts 292°
2026-05-04 12:52 24.93741 104.21733 33509 ft 442 kts 292°
2026-05-04 12:52 24.95019 104.18646 32758 ft 442 kts 292°
2026-05-04 12:52 24.96295 104.15558 31980 ft 443 kts 292°
2026-05-04 12:53 24.97570 104.12474 31219 ft 443 kts 292°
2026-05-04 12:53 24.98844 104.09389 30448 ft 443 kts 292°
2026-05-04 12:53 25.00126 104.06282 29530 ft 444 kts 292°
2026-05-04 12:53 25.01404 104.03182 28596 ft 445 kts 293°
2026-05-04 12:54 25.02665 104.00123 27758 ft 444 kts 292°
2026-05-04 12:54 25.03939 103.97029 26980 ft 442 kts 293°
2026-05-04 12:54 25.05202 103.93962 26251 ft 440 kts 293°
2026-05-04 12:54 25.06470 103.90877 25526 ft 439 kts 293°
2026-05-04 12:55 25.07722 103.87832 24798 ft 437 kts 293°
2026-05-04 12:55 25.08977 103.84775 24092 ft 436 kts 293°
2026-05-04 12:55 25.10224 103.81735 23315 ft 434 kts 293°
2026-05-04 12:55 25.11463 103.78715 22603 ft 431 kts 293°
2026-05-04 12:56 25.12693 103.75712 21952 ft 425 kts 293°
2026-05-04 12:56 25.13905 103.72753 21312 ft 420 kts 293°
2026-05-04 12:56 25.15102 103.69831 20669 ft 416 kts 293°
2026-05-04 12:56 25.16285 103.66937 20029 ft 411 kts 293°
2026-05-04 12:57 25.17455 103.64074 19396 ft 407 kts 293°
2026-05-04 12:57 25.18612 103.61242 18777 ft 403 kts 293°
2026-05-04 12:57 25.19760 103.58428 18123 ft 399 kts 293°
2026-05-04 12:57 25.20886 103.55666 17718 ft 389 kts 293°
2026-05-04 12:58 25.21964 103.53025 17281 ft 363 kts 293°
2026-05-04 12:58 25.22964 103.50573 16743 ft 340 kts 293°
2026-05-04 12:58 25.23906 103.48261 16278 ft 319 kts 293°
2026-05-04 12:58 25.24785 103.46096 15867 ft 300 kts 293°
2026-05-04 12:59 25.25613 103.44059 15514 ft 282 kts 293°
2026-05-04 12:59 25.26401 103.42121 15267 ft 273 kts 293°
2026-05-04 12:59 25.27166 103.40236 15107 ft 265 kts 293°
2026-05-04 12:59 25.27909 103.38404 14948 ft 257 kts 293°
2026-05-04 13:00 25.28630 103.36629 14788 ft 250 kts 293°
2026-05-04 13:00 25.29336 103.34888 14536 ft 248 kts 293°
2026-05-04 13:00 25.30039 103.33153 14248 ft 246 kts 293°
2026-05-04 13:00 25.30737 103.31432 13953 ft 246 kts 293°
2026-05-04 13:01 25.31494 103.29741 13595 ft 245 kts 300°
2026-05-04 13:01 25.32474 103.28199 13265 ft 245 kts 305°
2026-05-04 13:01 25.33520 103.26715 12926 ft 244 kts 306°
2026-05-04 13:01 25.34570 103.25249 12625 ft 243 kts 306°
2026-05-04 13:02 25.35617 103.23784 12316 ft 242 kts 306°
2026-05-04 13:02 25.36660 103.22322 12021 ft 241 kts 306°
2026-05-04 13:02 25.37530 103.20771 11807 ft 235 kts 290°
2026-05-04 13:02 25.37672 103.19021 11610 ft 229 kts 259°
2026-05-04 13:03 25.36950 103.17478 11381 ft 229 kts 230°
2026-05-04 13:03 25.35733 103.16355 11189 ft 226 kts 220°
2026-05-04 13:03 25.34497 103.15372 11067 ft 218 kts 219°
2026-05-04 13:03 25.33305 103.14371 10886 ft 213 kts 221°
2026-05-04 13:04 25.32127 103.13348 10632 ft 212 kts 221°
2026-05-04 13:04 25.30992 103.12353 10366 ft 211 kts 221°
2026-05-04 13:04 25.29844 103.11343 10131 ft 210 kts 221°
2026-05-04 13:04 25.28704 103.10339 9867 ft 208 kts 221°
2026-05-04 13:05 25.27575 103.09344 9838 ft 206 kts 221°
2026-05-04 13:05 25.26455 103.08358 9815 ft 206 kts 221°
2026-05-04 13:05 25.25326 103.07366 9811 ft 208 kts 221°
2026-05-04 13:05 25.24202 103.06380 9807 ft 208 kts 221°
2026-05-04 13:06 25.23065 103.05385 9759 ft 208 kts 221°
2026-05-04 13:06 25.21935 103.04399 9516 ft 204 kts 221°
2026-05-04 13:06 25.20851 103.03451 9234 ft 194 kts 221°
2026-05-04 13:06 25.19821 103.02547 8970 ft 185 kts 221°
2026-05-04 13:07 25.18836 103.01684 8743 ft 176 kts 220°
2026-05-04 13:07 25.17907 103.00874 8519 ft 164 kts 220°
2026-05-04 13:07 25.17041 103.00116 8292 ft 154 kts 221°
2026-05-04 13:07 25.16215 102.99392 8117 ft 151 kts 220°
2026-05-04 13:08 25.15386 102.98667 7901 ft 152 kts 220°
2026-05-04 13:08 25.14556 102.97941 7660 ft 152 kts 219°
2026-05-04 13:08 25.13729 102.97219 7422 ft 151 kts 219°
2026-05-04 13:08 25.12908 102.96501 7211 ft 150 kts 218°
2026-05-04 13:09 25.12094 102.95789 7016 ft 149 kts 218°
2026-05-04 13:09 25.11300 102.95087 6934 ft 142 kts 216°
2026-05-04 13:09 25.10658 102.94538 6935 ft 78 kts 218°
2026-05-04 13:09 25.10391 102.94295 6936 ft 38 kts 229°
2026-05-04 13:10 25.10285 102.94078 6934 ft 23 kts 271°
2026-05-04 13:10 25.10341 102.94034 6934 ft 5 kts 23°
2026-05-04 13:10 25.10386 102.94061 6936 ft 9 kts 32°
2026-05-04 13:10 25.10451 102.94120 6935 ft 15 kts 39°
2026-05-04 13:11 25.10548 102.94198 6931 ft 18 kts 23°
2026-05-04 13:11 25.10646 102.94142 6937 ft 18 kts 309°
2026-05-04 13:11 25.10735 102.94019 6939 ft 23 kts 309°
2026-05-04 13:11 25.10817 102.93906 6934 ft 18 kts 309°
2026-05-04 13:12 25.10903 102.93788 6937 ft 20 kts 307°
2026-05-04 13:12 25.10963 102.93761 6939 ft 14 kts 16°
2026-05-04 13:12 25.11004 102.93785 6933 ft 0 kts 37°